Glendale Luke AFB, AZ

10:49 AM MST on April 27, 2017 (GMT -0700)
Luke Air Force Base

Weather History for KLUF - October, 2012

Change the Weather History Date:

Saturday, October 27, 2012

  Actual Average Record
Temperature  
Mean Temperature 68 °F -  
Max Temperature 84 °F 85 °F 97 °F (1965)
Min Temperature 52 °F 49 °F 38 °F (1923)
Cooling Degree Days 3    
Growing Degree Days 18 (Base 50)    
Moisture  
Dew Point 24 °F    
Average Humidity 20    
Maximum Humidity 28    
Minimum Humidity 11    
Precipitation  
Precipitation 0.00 in - - ()
Sea Level Pressure  
Sea Level Pressure 29.89 in    
Wind  
Wind Speed 8 mph (NNW)    
Max Wind Speed 12 mph    
Max Gust Speed -    
Visibility 10 miles    
Events      
Averages and records for this station are not official NWS values.
T = Trace of Precipitation, MM = Missing Value Source: NWS Daily Summary

Daily Weather History Graph

Daily Weather History Graph

Search for Another Location

Airport or City:

Trip Planner

Search our weather history database for the weather conditions in past years. The results will help you decide how hot, cold, wet, or windy it might be!

Date:

Astronomy

Oct. 27, 2012 Rise Set
Actual Time 6:44 AM MST 5:41 PM MST
Civil Twilight 6:18 AM MST 6:07 PM MST
Nautical Twilight 5:49 AM MST 6:36 PM MST
Astronomical Twilight 5:20 AM MST 7:05 PM MST
Moon 4:26 PM MST 4:47 AM MST
Length of Visible Light 11h 48m
Length of Day
10h 57m
Waxing Gibbous, 96% of the Moon is Illuminated
Oct 27
Waxing Gibbous
Oct 29
Full
Nov 6
Last Quarter
Nov 13
New
Nov 20
First Quarter

Hourly Weather History & Observations

Time (MST) Temp. Dew Point Humidity Pressure Visibility Wind Dir Wind Speed Gust Speed Precip Events Conditions
12:55 AM 58.8 °F 22.3 °F 24% 29.89 in 10.0 mi North 9.2 mph - N/A   Clear
1:55 AM 56.5 °F 19.6 °F 24% 29.89 in 10.0 mi NNW 6.9 mph - N/A   Clear
2:55 AM 55.4 °F 21.2 °F 26% 29.89 in 10.0 mi NNW 8.1 mph - N/A   Clear
3:55 AM 54.0 °F 20.1 °F 27% 29.89 in 10.0 mi NNW 8.1 mph - N/A   Clear
4:55 AM 52.9 °F 19.2 °F 27% 29.90 in 10.0 mi NNW 9.2 mph - N/A   Clear
5:55 AM 52.7 °F 19.8 °F 27% 29.92 in 10.0 mi NNW 10.4 mph - N/A   Clear
6:55 AM 52.0 °F 19.4 °F 28% 29.95 in 10.0 mi NNW 9.2 mph - N/A   Clear
7:55 AM 57.4 °F 21.7 °F 25% 29.97 in 10.0 mi North 9.2 mph - N/A   Clear
8:55 AM 68.2 °F 24.4 °F 19% 29.97 in 10.0 mi North 6.9 mph - N/A   Clear
9:55 AM 73.2 °F 20.3 °F 14% 29.96 in 10.0 mi East 4.6 mph - N/A   Clear
11:55 AM 78.4 °F 24.1 °F 13% 29.92 in 10.0 mi Variable 5.8 mph - N/A   Clear
12:55 PM 80.6 °F 25.9 °F 13% 29.88 in 10.0 mi ENE 8.1 mph - N/A   Clear
1:55 PM 82.2 °F 23.2 °F 11% 29.86 in 10.0 mi East 4.6 mph - N/A   Clear
2:55 PM 84.2 °F 24.8 °F 11% 29.84 in 10.0 mi North 3.5 mph - N/A   Clear
3:55 PM 84.2 °F 24.8 °F 11% 29.83 in 10.0 mi West 3.5 mph - N/A   Clear
4:55 PM 83.3 °F 26.2 °F 12% 29.83 in 10.0 mi West 5.8 mph - N/A   Clear
5:55 PM 78.8 °F 27.9 °F 15% 29.84 in 10.0 mi NW 3.5 mph - N/A   Clear
6:55 PM 73.2 °F 31.5 °F 22% 29.87 in 10.0 mi NNW 3.5 mph - N/A   Clear
7:55 PM 69.4 °F 31.5 °F 24% 29.87 in 10.0 mi NW 4.6 mph - N/A   Clear
8:55 PM 67.6 °F 28.6 °F 23% 29.89 in 10.0 mi North 6.9 mph - N/A   Clear
9:55 PM 63.1 °F 28.4 °F 27% 29.90 in 10.0 mi NNE 8.1 mph - N/A   Clear
10:55 PM 65.8 °F 25.0 °F 21% 29.90 in 10.0 mi North 11.5 mph - N/A   Clear
11:55 PM 61.2 °F 23.5 °F 24% 29.90 in 10.0 mi North 11.5 mph - N/A   Clear